CAPE
0 0 0 0 0 0 0 0 0 0 0 298 269 335 271 346 351 432 436 376 315 257 165 212 184 101 132 322 463 670 837 842 1359 1245 1245 1638 1248 1356 1699 1579 1879 1847 1528 2217
0 0 0 0 0 0 0 0 0 0 4 130 16 72 100 435 410 481 446 409 350 267 199 181 168 82 46 220 462 742 975 963 1433 1462 1517 1579 1554 1091 1351 1691 1755 1485 1332 1858
0 0 0 0 0 0 0 0 0 0 0 15 6 0 13 251 356 402 465 447 373 268 191 205 222 132 56 102 298 682 1046 1027 1339 1251 1419 1599 1415 1317 1548 1715 1620 1325 1505 1475
0 0 0 0 0 0 0 0 0 0 0 0 3 0 0 16 411 431 464 447 427 299 200 151 219 257 200 165 139 554 1091 1094 1259 1286 1350 1780 1250 1166 1351 1800 1413 1266 1425 1259
0 0 0 0 0 0 0 0 0 0 0 0 0 0 0 6 191 440 459 470 461 372 217 94 110 162 175 124 102 194 901 1221 1442 1182 1540 1581 1603 1311 1197 1259 1485 1271 1403 1430
0 0 0 0 0 0 0 0 0 0 0 0 0 0 0 0 0 101 352 450 404 434 275 90 15 15 119 130 229 274 725 1263 1360 1098 1225 1757 1824 1491 1158 1348 1319 1069 881 1309
0 0 0 0 0 0 0 0 0 0 0 0 0 0 0 0 0 20 4 317 458 410 345 154 12 36 118 162 222 305 731 1034 992 1013 1104 1369 1775 1971 1793 1758 1424 1458 1254 991
0 0 0 0 0 0 0 0 0 0 0 0 0 0 0 0 0 0 0 1 283 396 374 266 66 49 158 165 240 349 693 1255 996 925 1267 1713 1753 1525 1568 1765 1313 1419 1350 1313
0 0 0 0 0 0 0 0 0 0 0 0 0 0 0 0 0 39 642 412 165 440 340 364 213 98 170 293 211 354 829 1265 1036 975 1361 1638 1678 1817 1732 1775 1916 1614 1766 1338
0 0 0 0 0 0 0 0 0 0 0 0 0 0 0 0 0 0 121 561 479 559 408 365 305 231 179 197 264 317 655 1175 913 991 1373 1361 1467 1578 1722 1765 1728 1580 1747 2001
0 0 0 0 0 0 0 0 0 0 0 0 0 0 0 0 0 0 0 463 676 709 541 452 326 319 317 171 154 285 595 983 1120 1566 1772 1877 1624 1469 1419 1468 1789 1852 1820 1909
0 0 0 0 0 0 0 0 0 0 0 0 0 0 0 0 0 0 0 146 761 845 711 571 385 323 422 519 336 289 706 1120 1252 1500 1860 1691 1566 1558 1528 1575 1660 1893 1994 1921
0 0 0 0 0 0 0 0 0 0 0 0 0 0 0 0 0 0 0 3 666 886 876 711 674 619 699 764 623 536 679 1003 1246 1494 1387 1441 1417 1439 1520 1508 1569 1695 1821 1899
0 0 0 0 0 0 0 0 0 0 0 0 0 0 0 0 0 0 0 0 58 940 1000 900 959 892 881 922 907 675 698 926 1168 1410 1438 1669 1376 1540 1412 1804 1807 1596 1643 1719
0 0 0 0 0 0 0 0 0 0 0 0 0 0 0 0 0 0 14 0 0 848 1024 1184 1156 1151 942 1014 1055 1025 786 833 1265 1481 1548 1730 1896 1949 1896 1953 1841 1595 1612 1401
0 0 0 0 0 0 0 0 0 0 0 0 0 0 0 381 527 403 310 82 12 350 1027 1130 1172 1316 1378 1206 1080 1120 1071 987 1204 1563 1637 1849 2016 2057 2067 2121 1931 1735 1442 1363
0 0 0 0 0 0 0 5 0 0 63 17 0 91 797 928 991 1124 1015 664 396 183 214 881 1072 1377 1326 1450 1310 1124 1236 1153 1145 1414 1632 1836 2030 2042 2079 2046 1907 1821 1807 1581
0 0 0 0 0 0 0 119 98 129 252 182 220 294 476 458 838 1010 759 545 555 353 305 397 574 1347 1437 1201 1459 1314 1258 1368 1229 1269 1475 1727 1916 1949 2032 2086 2043 2132 1755 1754
0 0 0 0 0 0 18 39 71 104 170 33 7 41 141 348 926 350 634 888 1059 710 501 554 759 602 1267 1377 1491 1510 1454 1446 1373 1354 1439 1560 1728 1787 1823 1885 1934 2001 2045 1740
0 0 0 0 0 0 10 26 64 104 171 16 7 6 3 160 750 910 607 547 1053 1379 769 429 617 658 790 1485 1499 1565 1532 1593 1583 1527 1556 1597 1710 1761 1782 1875 1989 2063 2176 2145
0 0 0 0 0 0 40 99 175 329 62 4 11 7 13 48 71 169 271 469 631 1272 1847 1216 546 962 1403 1680 1540 1526 1490 1537 1695 1735 1729 1797 1856 1885 1946 2066 2096 2136 2178 2154
0 0 0 0 0 0 0 112 99 20 3 6 7 5 18 18 4 54 146 340 624 864 1267 1807 593 1094 1444 1677 1654 1651 1587 1564 1579 1813 1849 1960 2044 1716 1633 2169 2198 2153 2279 2158
52 0 0 0 0 0 0 4 1 7 6 23 15 6 7 31 6 3 31 90 254 526 837 1450 551 1156 1455 1564 1814 1772 1748 1724 1848 1885 1984 2028 2062 1744 1998 2060 2202 1694 2074 1778
0 0 8 0 41 0 0 0 0 2 9 9 34 25 44 46 15 6 16 21 39 222 378 914 924 791 1323 1453 1498 1585 1382 1382 1657 1688 1926 1978 2035 1702 1810 1632 1621 1663 1726 1829
0 2 17 5 10 16 42 0 0 0 1 12 31 42 42 41 38 38 11 11 7 11 9 7 199 716 839 936 1214 1113 1226 1247 1193 1362 1455 1550 1549 1487 1721 1947 1770 1890 2294 1918
6 5 5 24 7 15 10 1 0 0 0 1 85 36 53 60 45 33 20 16 12 6 7 7 6 6 8 6 10 78 767 1045 1243 1236 1231 1373 1506 1616 1573 1702 1923 1219 1081 798
CIN
-0 -0 -0 -0 -0 -0 -0 -0 -0 -0 -0 -38 -34 -45 -94 -179 -177 -189 -176 -185 -170 -143 -136 -109 -111 -138 -74 -40 -38 -36 -38 -49 -31 -30 -18 -13 -6 -16 -15 -25 -29 -31 -35 -18
-0 -0 -0 -0 -0 -0 -0 -0 -0 -0 -38 -51 -96 -88 -102 -163 -170 -156 -198 -188 -179 -157 -162 -130 -123 -168 -182 -96 -42 -39 -35 -47 -34 -23 -27 -19 -20 -33 -28 -26 -32 -36 -46 -31
-0 -0 -0 -0 -0 -0 -0 -0 -0 -0 -0 -44 -143 -0 -197 -209 -212 -201 -204 -197 -174 -189 -213 -201 -170 -181 -195 -174 -87 -42 -42 -48 -41 -39 -31 -36 -51 -48 -27 -30 -24 -47 -51 -62
-0 -0 -0 -0 -0 -0 -0 -0 -0 -0 -0 -0 -186 -0 -0 -85 -183 -237 -229 -260 -223 -212 -246 -217 -168 -162 -176 -173 -192 -66 -46 -48 -43 -47 -24 -14 -12 -12 -19 -16 -31 -47 -63 -82
-0 -0 -0 -0 -0 -0 -0 -0 -0 -0 -0 -0 -0 -0 -0 -274 -175 -187 -218 -258 -247 -237 -250 -292 -250 -208 -183 -177 -236 -163 -77 -59 -32 -62 -23 -19 -13 -23 -41 -39 -44 -59 -70 -69
-0 -0 -0 -0 -0 -0 -0 -0 -0 -0 -0 -0 -0 -0 -0 -0 -0 -121 -168 -238 -281 -275 -272 -300 -209 -220 -184 -170 -169 -149 -122 -85 -63 -87 -74 -33 -25 -40 -50 -38 -29 -54 -91 -62
-0 -0 -0 -0 -0 -0 -0 -0 -0 -0 -0 -0 -0 -0 -0 -0 -0 -146 -58 -209 -298 -325 -304 -319 -276 -257 -202 -185 -162 -152 -131 -110 -119 -111 -106 -83 -42 -32 -37 -39 -32 -33 -50 -76
-0 -0 -0 -0 -0 -0 -0 -0 -0 -0 -0 -0 -0 -0 -0 -0 -0 -0 -0 -89 -296 -385 -360 -345 -327 -310 -231 -195 -192 -161 -157 -100 -132 -136 -119 -76 -57 -48 -44 -41 -58 -46 -43 -56
-0 -0 -0 -0 -0 -0 -0 -0 -0 -0 -0 -0 -0 -0 -0 -0 -0 -126 -136 -254 -262 -374 -405 -376 -339 -321 -285 -223 -226 -198 -142 -103 -142 -160 -118 -96 -91 -63 -63 -66 -66 -57 -66 -75
-0 -0 -0 -0 -0 -0 -0 -0 -0 -0 -0 -0 -0 -0 -0 -0 -0 -0 -142 -185 -254 -314 -382 -385 -383 -355 -322 -288 -235 -190 -137 -113 -158 -152 -121 -133 -143 -117 -101 -81 -89 -101 -75 -59
-0 -0 -0 -0 -0 -0 -0 -0 -0 -0 -0 -0 -0 -0 -0 -0 -0 -0 -11 -196 -251 -290 -342 -348 -374 -363 -313 -286 -283 -249 -159 -121 -110 -88 -99 -86 -112 -137 -137 -134 -97 -92 -93 -86
-0 -0 -0 -0 -0 -0 -0 -0 -0 -0 -0 -0 -0 -0 -0 -0 -0 -0 -0 -261 -228 -260 -290 -321 -332 -315 -299 -235 -256 -289 -162 -120 -128 -116 -87 -130 -135 -119 -124 -139 -136 -112 -103 -109
-0 -0 -0 -0 -0 -0 -0 -0 -0 -0 -0 -0 -0 -0 -0 -0 -0 -0 -0 -65 -239 -260 -309 -335 -320 -333 -299 -273 -267 -262 -215 -165 -132 -116 -132 -130 -136 -143 -149 -154 -156 -158 -146 -133
-0 -0 -0 -0 -0 -0 -0 -0 -0 -0 -0 -0 -0 -0 -0 -0 -0 -0 -0 -0 -325 -285 -313 -349 -358 -392 -371 -330 -297 -318 -284 -189 -155 -124 -126 -107 -151 -152 -169 -157 -153 -191 -195 -179
-0 -0 -0 -0 -0 -0 -0 -0 -0 -0 -0 -0 -0 -0 -0 -0 -0 -0 -345 -0 -60 -292 -319 -343 -392 -416 -415 -382 -344 -311 -311 -260 -163 -136 -126 -126 -126 -139 -146 -137 -180 -217 -217 -248
-0 -0 -0 -0 -0 -0 -0 -0 -0 -0 -0 -0 -0 -0 -4 -155 -210 -272 -307 -375 -389 -357 -314 -346 -394 -353 -398 -433 -440 -385 -344 -332 -234 -148 -140 -126 -119 -125 -140 -149 -181 -222 -273 -283
-0 -0 -0 -0 -0 -0 -0 -25 -0 -0 -6 -12 -0 -12 -91 -120 -174 -208 -281 -350 -394 -414 -427 -370 -363 -367 -447 -424 -435 -426 -392 -331 -312 -242 -182 -137 -123 -124 -137 -175 -191 -212 -241 -275
-0 -0 -0 -0 -0 -0 -0 -91 -97 -22 -37 -52 -50 -71 -98 -149 -199 -240 -360 -471 -488 -522 -458 -452 -431 -375 -397 -375 -333 -395 -350 -344 -343 -312 -241 -179 -143 -148 -139 -145 -175 -194 -247 -267
-0 -0 -0 -0 -0 -0 -53 -131 -116 -78 -13 -102 -7 -128 -120 -161 -178 -278 -341 -391 -436 -590 -634 -466 -396 -484 -446 -435 -408 -323 -307 -326 -325 -323 -287 -243 -196 -175 -163 -169 -201 -219 -210 -279
-0 -0 -0 -0 -0 -0 -143 -156 -136 -100 -22 -98 -0 -0 -14 -161 -106 -121 -303 -418 -412 -423 -617 -570 -480 -441 -502 -470 -439 -387 -359 -306 -327 -323 -296 -250 -215 -181 -162 -176 -190 -211 -206 -227
-0 -0 -0 -0 -0 -0 -150 -113 -101 -13 -79 -0 -0 -0 -0 -144 -102 -275 -325 -365 -431 -384 -356 -531 -561 -429 -436 -417 -401 -379 -377 -382 -352 -263 -221 -178 -167 -165 -157 -146 -146 -162 -177 -192
-0 -0 -0 -0 -0 -0 -0 -81 -97 -43 -0 -0 -0 -0 -76 -136 -0 -298 -320 -346 -374 -433 -444 -389 -574 -436 -440 -402 -347 -333 -412 -468 -337 -234 -181 -143 -141 -176 -159 -109 -105 -105 -112 -165
-5 -0 -0 -0 -0 -0 -0 -0 -0 -0 -0 -154 -163 -0 -0 -199 -0 -0 -367 -404 -446 -458 -485 -420 -598 -452 -423 -383 -321 -337 -433 -309 -256 -221 -201 -170 -141 -165 -113 -109 -97 -134 -98 -164
-0 -0 -4 -0 -35 -0 -0 -0 -0 -0 -0 -39 -131 -134 -138 -180 -119 -8 -285 -446 -531 -519 -568 -473 -506 -501 -411 -384 -349 -301 -258 -281 -237 -244 -198 -170 -145 -179 -145 -156 -159 -138 -128 -146
-0 -0 -7 -50 -18 -62 -60 -0 -0 -0 -0 -119 -128 -66 -103 -150 -152 -210 -0 -0 -0 -372 -0 -0 -739 -531 -494 -461 -348 -324 -259 -265 -269 -244 -226 -193 -175 -200 -146 -118 -137 -139 -126 -163
-10 -0 -0 -11 -0 -78 -134 -169 -0 -0 -0 -0 -35 -92 -90 -91 -108 -203 -0 -0 -0 -0 -0 -0 -0 -0 -0 -303 -474 -817 -407 -301 -217 -227 -238 -200 -167 -163 -182 -156 -150 -311 -366 -518
Wind_Speed
9 9 13 12 7 2 5 4 2 2 2 8 12 13 12 14 14 15 17 18 19 19 18 18 17 16 14 13 12 11 10 8 7 6 5 3 4 3 3 2 2 3 3 3
7 16 13 6 8 6 3 2 3 1 3 8 6 13 11 17 20 19 19 19 19 20 20 19 18 18 17 15 14 13 11 11 9 6 4 2 3 2 2 2 2 1 2 2
20 14 12 10 9 9 4 5 3 2 2 6 5 8 5 8 12 14 15 17 18 22 23 23 23 20 18 17 16 14 13 13 11 9 5 3 3 2 3 3 3 2 2 1
16 12 17 13 15 12 11 10 4 3 5 4 3 6 6 6 14 17 19 20 19 20 21 21 22 22 21 19 17 17 15 14 12 12 9 8 6 5 3 3 3 3 3 3
14 16 15 15 15 13 8 6 5 4 7 5 8 7 3 3 8 17 20 21 23 22 23 24 25 24 22 19 17 16 15 15 13 12 11 9 8 5 3 3 5 3 3 4
12 2 12 20 10 15 9 6 3 1 5 10 11 8 11 7 8 13 15 21 24 24 24 24 23 21 20 17 16 15 16 15 15 14 14 13 11 8 5 5 5 4 3 4
5 11 5 4 13 7 13 8 6 9 8 9 2 9 15 6 8 14 12 20 24 25 26 25 25 23 21 21 20 16 17 17 17 16 15 15 12 10 10 8 6 5 4 4
13 10 12 8 15 11 19 18 9 11 11 10 2 9 10 10 11 9 10 15 19 24 24 26 26 24 23 23 21 19 19 17 17 17 16 14 13 9 8 9 6 5 4 4
11 12 1 8 6 13 7 9 13 16 1 6 7 6 12 14 14 5 6 8 13 21 24 26 26 25 23 23 22 21 19 18 17 18 15 14 13 12 11 10 8 6 4 4
4 8 4 5 5 3 7 12 8 5 16 17 10 7 13 7 7 7 5 5 10 17 22 22 24 24 23 24 21 22 22 19 19 19 16 13 14 13 12 10 10 9 7 6
1 3 6 3 9 12 7 10 3 5 7 14 15 15 10 13 11 11 8 5 10 16 21 22 23 23 23 23 23 22 21 21 18 17 16 14 14 14 13 12 12 11 9 9
4 1 11 11 5 4 11 15 18 11 9 6 9 16 6 5 8 9 12 7 9 15 19 20 21 22 22 22 22 22 20 20 19 17 15 17 16 15 14 13 13 12 11 10
2 1 6 6 7 3 5 7 12 13 14 15 10 8 4 11 13 8 10 7 8 14 17 19 20 20 20 21 20 20 20 20 19 17 18 17 17 16 16 15 14 13 13 12
2 3 4 3 2 3 6 5 7 16 14 15 20 19 18 20 18 17 10 8 8 13 18 19 19 21 21 20 20 20 20 20 19 19 19 18 18 18 17 15 14 14 14 14
4 2 2 3 6 4 6 7 5 10 14 13 15 19 15 14 12 16 14 14 9 13 18 20 21 19 19 20 20 20 20 20 19 19 19 19 17 16 15 14 14 14 14 14
4 2 2 1 3 2 6 9 10 11 12 11 12 14 4 13 14 18 15 14 12 13 18 20 20 19 21 22 21 21 20 20 18 19 19 17 17 16 15 15 14 14 14 14
3 1 2 4 3 5 7 5 8 4 3 8 12 4 12 16 17 18 17 16 17 13 12 16 19 19 19 22 20 22 21 19 19 19 19 18 17 17 16 15 15 15 15 13
3 2 1 3 5 8 6 10 8 5 9 10 4 9 12 14 20 20 14 13 17 14 13 12 16 17 18 18 19 17 19 20 20 20 20 19 18 18 16 15 15 15 13 14
5 2 2 4 7 4 6 8 8 6 5 13 13 14 17 19 19 4 12 19 18 18 16 15 14 18 17 20 20 19 18 19 19 20 20 19 18 18 17 17 16 15 13 13
6 2 5 3 6 8 8 12 9 5 5 16 17 16 18 18 10 10 25 23 21 19 14 12 12 13 16 17 18 19 19 19 20 20 19 18 18 17 17 17 16 14 14 13
4 4 9 7 4 1 12 13 2 9 5 18 15 16 15 10 9 18 18 17 17 16 17 13 10 11 14 15 17 19 18 20 18 17 16 16 17 17 17 16 14 13 13 12
2 4 5 5 5 6 16 4 5 6 8 13 14 13 16 15 15 16 17 16 16 17 17 13 8 10 12 15 16 17 18 18 16 15 15 15 15 14 13 14 12 13 12 13
4 3 3 5 3 2 7 4 6 10 13 9 12 16 15 15 14 15 15 15 14 16 15 12 6 7 10 13 14 16 17 13 14 14 15 16 15 14 13 13 13 12 12 12
4 2 3 5 4 5 7 4 6 11 13 14 14 16 14 13 15 13 13 14 13 14 15 15 9 1 7 10 12 12 9 11 13 15 14 14 14 14 14 13 12 12 12 12
2 1 3 7 5 8 5 8 11 16 17 16 14 14 13 12 12 12 10 12 12 14 15 14 14 13 8 3 5 5 6 11 13 13 13 14 13 13 13 13 12 13 13 13
2 2 3 3 6 6 9 10 15 15 17 19 16 16 14 12 12 11 9 10 11 14 15 15 15 15 13 13 12 10 7 6 11 12 12 12 12 12 12 12 11 12 11 10
Wind_Direction
186 201 206 198 206 124 131 143 198 174 210 225 236 240 200 185 194 187 187 191 193 199 190 187 188 187 193 197 198 199 184 178 169 162 181 183 180 163 165 176 132 117 82 44
174 219 198 184 168 158 165 207 243 189 247 222 263 252 237 192 204 197 192 194 195 193 193 191 192 190 192 195 204 201 199 178 189 179 181 191 159 151 104 177 154 127 90 55
208 203 163 168 170 174 180 223 234 304 343 231 274 269 202 209 215 208 210 208 202 198 198 194 192 195 195 199 201 203 198 189 190 196 174 147 128 136 161 174 187 177 169 170
218 191 175 189 191 197 213 217 229 273 312 296 306 289 256 200 209 213 209 205 205 204 204 202 201 196 199 201 197 203 198 195 191 193 197 198 195 191 176 172 161 159 197 190
196 187 191 203 207 192 231 182 235 258 264 280 241 265 245 175 207 222 220 212 208 205 201 201 203 203 200 194 196 199 198 197 193 195 206 202 201 189 157 170 181 180 187 208
228 154 209 220 195 200 153 144 95 106 252 252 250 245 267 244 240 226 221 218 212 204 201 202 202 197 201 197 198 197 194 196 194 197 201 205 197 185 184 178 190 199 206 200
155 196 177 174 198 197 193 209 224 225 214 247 227 229 249 225 248 236 236 220 210 204 200 196 195 194 196 198 199 195 194 196 195 199 204 205 205 195 195 184 193 199 203 213
190 195 190 173 219 195 201 209 220 224 231 247 152 236 247 246 258 255 253 239 213 202 200 197 195 191 193 198 198 196 191 197 193 197 205 203 202 205 205 197 194 205 207 204
194 207 184 193 156 174 163 203 232 248 320 245 237 253 277 254 261 259 263 241 213 199 200 199 195 194 193 195 196 197 192 195 195 199 201 204 202 209 207 200 200 204 203 203
150 200 196 152 166 86 203 155 179 208 227 238 218 243 250 261 267 290 290 235 205 195 197 196 195 196 196 197 195 196 194 197 198 201 202 205 205 208 207 204 205 205 202 205
35 268 147 208 201 184 175 202 216 243 242 237 243 240 229 248 272 302 314 257 201 195 194 198 197 195 195 195 196 198 199 194 202 202 199 205 210 211 210 209 209 209 207 206
27 232 218 200 108 346 244 224 215 222 192 234 276 253 243 265 295 301 297 282 211 202 195 196 198 196 196 198 199 198 199 200 197 201 201 202 205 212 215 213 210 209 209 205
16 60 179 193 206 159 217 201 231 237 241 230 234 256 197 305 300 283 283 300 232 206 197 195 192 195 196 194 196 199 198 202 199 197 202 208 207 209 218 218 215 212 212 210
239 97 353 239 22 350 211 203 206 219 226 232 239 261 268 291 297 300 315 313 267 214 199 196 195 192 192 198 196 197 201 201 198 198 203 206 208 209 216 213 214 213 214 214
14 88 319 275 267 252 264 261 217 215 231 238 250 246 257 260 300 300 307 298 275 217 207 202 197 196 197 193 196 199 200 199 199 200 203 207 206 208 213 212 212 213 217 219
8 113 313 224 112 192 269 261 251 245 250 250 257 269 10 317 306 295 301 298 279 239 222 208 203 199 198 199 198 195 198 199 195 200 207 207 207 207 208 209 212 210 215 219
33 25 318 243 350 297 245 307 264 237 210 266 239 331 341 326 318 305 315 309 302 307 261 226 215 213 203 199 196 200 197 191 196 200 201 205 205 208 208 207 209 214 214 212
147 90 294 278 286 227 87 28 22 162 67 26 1 351 336 324 307 297 318 316 311 307 285 243 222 216 211 206 207 200 193 194 195 200 201 203 204 207 207 207 209 214 212 214
246 227 188 256 223 330 111 31 360 351 80 28 357 347 342 337 309 166 2 342 321 314 285 263 237 215 204 201 195 193 196 194 196 201 202 202 203 208 207 209 209 212 212 214
158 257 259 165 237 218 52 342 313 254 206 9 346 337 342 337 341 338 336 328 323 319 314 277 256 226 203 196 188 188 191 193 200 200 202 201 202 208 211 211 211 211 213 219
146 193 229 217 266 221 353 330 287 203 3 325 330 328 330 329 312 305 314 316 323 321 317 312 266 217 195 182 180 189 186 198 199 200 201 202 202 203 210 213 213 211 212 222
222 214 197 211 233 233 2 34 21 336 310 317 329 324 321 323 324 320 322 322 329 336 333 326 272 221 187 180 180 184 196 198 193 193 197 203 203 207 208 211 211 216 215 218
213 298 318 276 39 14 1 13 353 340 307 321 323 324 317 325 329 324 323 330 335 338 340 338 284 206 189 186 184 192 208 186 187 188 195 200 203 204 210 205 209 210 216 228
200 201 256 295 124 333 325 22 357 330 330 318 327 325 323 328 329 328 328 335 347 353 360 355 16 143 181 187 198 212 195 190 191 195 200 202 203 201 206 208 210 216 219 222
344 234 255 264 274 309 147 5 347 334 324 328 330 338 339 335 335 345 337 346 354 8 3 7 16 30 41 94 183 203 199 182 196 203 205 210 213 204 210 220 216 213 217 214
203 272 250 300 347 319 300 335 323 324 325 322 330 342 338 344 349 357 5 353 0 15 10 10 12 22 23 36 38 29 16 227 217 210 207 212 214 207 209 215 224 229 247 226